Terminal Aerodrome Forecast
Issued by NWS Charleston, SC

Home | Current Version | Previous Version | Text Only | Print | Product List | Glossary On
Versions: 1 2 3 4 5 6 7 8 9 10 11 12 13 14 15 16 17 18 19 20 21 22 23 24 25 26 27 28 29 30 31
000
FTUS42 KCHS 262300
TAFCHS
TAF
KCHS 262320Z 2700/2724 27013G19KT P6SM SCT040 BKN060
     FM270600 29010G16KT P6SM SCT035
     FM271400 31012G18KT P6SM FEW025 SCT060
     FM272230 31008KT P6SM FEW060=

USA.gov is the U.S. government's official web portal to all federal, state and local government web resources and services.